Location: Seattle
(47.6064°N, 122.3308°W)
Time: 04:39:35
(UTC-08:00)

N. Korean satellite - Pass Details

Date: 02 December 2022
Orbit: 407 x 441 km, 97.3° (Epoch: 05 February)

Event Time Altitude Azimuth Distance (km) Brightness Sun altitude
Rises 06:00:23 0° 6° (N) 2,530 10.1 -15.8°
Reaches altitude 10° 06:02:31 10° 360° (N) 1,645 9.1 -15.5°
Maximum altitude 06:05:53 42° 288° (WNW) 680 6.8 -14.9°
Drops below altitude 10° 06:09:11 10° 217° (SW) 1,613 9.0 -14.4°
Sets 06:11:15 0° 210° (SSW) 2,474 10.0 -14.0°
